Temp
-21 -22 -21 -21 -22 -23 -22 -22 -22 -21 -22 -24 -23 -22 -22 -22 -22 -23 -23 -23 -22 -22 -22 -22 -22 -22 -21 -20 -20 -19 -18 -18 -18 -18 -18 -18 -18 -18 -17 -18 -19 -19 -19 -18
-22 -22 -22 -21 -22 -23 -22 -23 -22 -22 -22 -23 -23 -23 -23 -23 -23 -23 -23 -23 -23 -23 -23 -22 -21 -22 -21 -21 -20 -20 -19 -19 -19 -18 -18 -18 -18 -18 -19 -19 -20 -19 -19 -19
-22 -22 -22 -22 -22 -22 -23 -22 -22 -22 -22 -22 -23 -23 -23 -23 -23 -23 -23 -23 -23 -23 -23 -22 -22 -21 -21 -21 -21 -21 -20 -19 -19 -19 -19 -20 -20 -19 -20 -20 -19 -19 -19 -19
-23 -23 -22 -22 -22 -22 -22 -22 -22 -23 -22 -21 -22 -22 -22 -22 -23 -23 -23 -23 -23 -23 -23 -22 -22 -22 -22 -21 -21 -21 -20 -20 -20 -19 -19 -20 -20 -20 -20 -20 -20 -20 -20 -20
-23 -23 -23 -23 -22 -22 -22 -22 -22 -22 -22 -22 -22 -22 -22 -23 -23 -23 -23 -23 -23 -23 -23 -22 -22 -22 -22 -21 -21 -21 -21 -20 -20 -20 -20 -21 -21 -20 -20 -20 -20 -19 -20 -20
-24 -24 -24 -23 -23 -22 -22 -23 -22 -22 -23 -23 -22 -21 -23 -22 -23 -23 -23 -23 -23 -23 -23 -23 -23 -22 -22 -22 -21 -22 -21 -21 -20 -21 -21 -22 -21 -20 -20 -20 -20 -20 -20 -20
-24 -24 -24 -23 -23 -23 -23 -22 -22 -22 -22 -22 -22 -22 -22 -22 -22 -23 -22 -23 -23 -22 -23 -23 -23 -22 -22 -22 -21 -21 -20 -21 -23 -22 -22 -21 -20 -21 -20 -20 -20 -21 -20 -20
-25 -25 -24 -24 -23 -23 -23 -22 -22 -22 -22 -23 -22 -22 -22 -22 -23 -22 -23 -22 -23 -23 -23 -23 -22 -22 -21 -21 -21 -22 -22 -22 -23 -22 -22 -21 -21 -21 -21 -21 -21 -21 -21 -21
-25 -25 -24 -24 -23 -23 -23 -23 -22 -22 -22 -22 -23 -22 -22 -22 -22 -22 -22 -23 -23 -22 -22 -22 -22 -21 -21 -22 -22 -22 -22 -22 -23 -23 -22 -22 -21 -21 -21 -21 -21 -21 -21 -21
-25 -25 -24 -24 -23 -23 -23 -22 -22 -22 -23 -23 -22 -22 -22 -22 -22 -22 -22 -22 -22 -23 -23 -22 -22 -22 -22 -22 -22 -22 -22 -23 -23 -22 -22 -22 -21 -21 -21 -21 -21 -22 -22 -22
-25 -25 -24 -24 -23 -23 -23 -22 -22 -21 -21 -22 -22 -22 -22 -22 -22 -22 -22 -22 -22 -23 -22 -22 -22 -23 -23 -23 -23 -23 -24 -24 -23 -23 -22 -22 -21 -22 -22 -21 -22 -22 -22 -22
-26 -25 -24 -24 -23 -23 -23 -22 -22 -22 -22 -22 -22 -22 -21 -22 -22 -22 -22 -22 -23 -23 -23 -23 -23 -23 -23 -23 -23 -24 -24 -24 -23 -23 -22 -22 -22 -22 -22 -22 -22 -22 -22 -23
-26 -25 -24 -24 -23 -24 -23 -22 -22 -22 -22 -22 -22 -22 -22 -22 -22 -22 -22 -23 -23 -23 -23 -24 -24 -23 -23 -23 -23 -23 -23 -23 -23 -22 -22 -22 -22 -22 -22 -22 -22 -22 -23 -23
-26 -25 -24 -24 -24 -24 -24 -24 -23 -22 -22 -22 -22 -22 -22 -22 -22 -23 -23 -23 -24 -24 -24 -24 -24 -23 -23 -23 -24 -24 -23 -23 -22 -22 -22 -22 -22 -22 -22 -22 -22 -23 -23 -24
-26 -25 -25 -25 -25 -25 -25 -25 -24 -23 -23 -22 -21 -21 -22 -22 -23 -23 -23 -23 -24 -24 -24 -24 -24 -23 -23 -23 -23 -23 -23 -23 -23 -22 -22 -22 -22 -22 -22 -23 -23 -23 -24 -24
-25 -25 -25 -25 -25 -25 -25 -25 -25 -24 -23 -23 -23 -23 -23 -23 -23 -23 -23 -23 -23 -24 -24 -24 -24 -24 -24 -23 -24 -23 -23 -23 -22 -22 -22 -22 -22 -22 -23 -23 -23 -24 -25 -25
-26 -26 -26 -25 -26 -26 -25 -25 -24 -24 -24 -24 -24 -24 -23 -23 -24 -24 -24 -24 -24 -24 -24 -24 -24 -24 -24 -24 -24 -24 -23 -23 -22 -22 -22 -23 -23 -23 -23 -23 -24 -25 -26 -26
-26 -26 -25 -26 -26 -25 -25 -25 -25 -25 -25 -25 -24 -24 -24 -24 -24 -24 -24 -24 -24 -24 -24 -24 -24 -24 -24 -23 -24 -23 -23 -23 -23 -22 -23 -23 -23 -23 -24 -24 -25 -26 -26 -26
-26 -26 -26 -26 -26 -26 -26 -26 -25 -25 -25 -24 -25 -25 -25 -24 -24 -24 -24 -25 -25 -25 -24 -25 -25 -24 -24 -24 -23 -24 -23 -23 -23 -23 -23 -23 -23 -23 -24 -25 -25 -25 -26 -26
-27 -27 -27 -27 -27 -26 -26 -25 -25 -25 -25 -25 -24 -25 -25 -25 -25 -25 -25 -25 -25 -25 -25 -25 -24 -24 -24 -24 -24 -24 -24 -23 -23 -23 -23 -23 -23 -24 -25 -25 -25 -25 -25 -26
-27 -27 -27 -27 -27 -27 -26 -26 -26 -25 -25 -25 -25 -25 -25 -25 -25 -25 -25 -25 -25 -25 -25 -24 -24 -24 -24 -24 -24 -24 -24 -23 -23 -23 -23 -23 -24 -25 -25 -25 -25 -25 -25 -26
-27 -27 -27 -27 -27 -27 -27 -26 -26 -26 -26 -26 -26 -26 -25 -25 -25 -25 -25 -25 -24 -24 -25 -24 -24 -24 -24 -24 -24 -24 -24 -23 -23 -23 -23 -23 -24 -25 -25 -25 -25 -25 -26 -26
-27 -27 -27 -27 -27 -27 -26 -26 -26 -26 -26 -26 -26 -26 -26 -25 -25 -25 -25 -25 -24 -24 -24 -24 -24 -24 -24 -24 -24 -24 -24 -23 -23 -23 -23 -24 -25 -25 -26 -25 -25 -26 -26 -26
-27 -27 -27 -27 -26 -26 -26 -26 -26 -27 -26 -26 -26 -26 -26 -26 -25 -25 -25 -25 -25 -25 -24 -24 -25 -24 -25 -24 -24 -24 -24 -24 -24 -24 -24 -25 -25 -25 -26 -26 -26 -26 -26 -26
-28 -28 -27 -27 -27 -27 -27 -26 -27 -27 -27 -27 -27 -26 -26 -26 -26 -26 -25 -25 -25 -25 -25 -25 -25 -25 -25 -25 -24 -24 -24 -24 -24 -24 -25 -25 -26 -26 -26 -26 -26 -26 -26 -26
-28 -28 -28 -28 -27 -27 -27 -27 -27 -27 -27 -27 -27 -26 -26 -26 -26 -26 -26 -25 -25 -25 -25 -25 -25 -25 -25 -25 -25 -24 -24 -24 -24 -24 -25 -25 -26 -26 -26 -26 -26 -26 -26 -26
-29 -29 -28 -28 -27 -27 -27 -27 -27 -27 -27 -26 -26 -26 -26 -26 -26 -26 -26 -26 -26 -26 -26 -26 -26 -26 -25 -25 -25 -25 -24 -24 -24 -25 -25 -25 -26 -26 -26 -26 -26 -26 -26 -26
Height
5549 5553 5557 5563 5563 5562 5561 5565 5570 5577 5574 5565 5564 5565 5579 5584 5590 5595 5599 5602 5605 5612 5615 5618 5621 5626 5634 5639 5647 5648 5652 5654 5656 5661 5662 5662 5664 5666 5666 5666 5667 5665 5664 5666
5534 5539 5544 5550 5552 5550 5553 5554 5559 5557 5557 5552 5552 5559 5563 5570 5577 5583 5589 5592 5598 5605 5607 5609 5615 5620 5624 5629 5633 5639 5642 5643 5646 5648 5651 5653 5656 5658 5659 5659 5659 5658 5658 5659
5521 5527 5532 5539 5541 5541 5542 5545 5545 5541 5534 5547 5546 5549 5553 5560 5568 5574 5579 5585 5589 5595 5598 5601 5607 5611 5615 5621 5626 5629 5631 5634 5638 5640 5644 5645 5647 5649 5651 5653 5653 5652 5652 5650
5508 5515 5521 5527 5530 5531 5533 5533 5532 5531 5529 5531 5538 5541 5546 5552 5558 5564 5569 5575 5580 5586 5591 5595 5598 5603 5608 5614 5617 5620 5622 5625 5628 5630 5633 5636 5640 5642 5645 5647 5647 5646 5645 5641
5497 5504 5510 5514 5519 5521 5522 5521 5522 5519 5519 5521 5530 5532 5535 5543 5552 5556 5563 5568 5576 5580 5585 5590 5595 5599 5603 5606 5609 5611 5613 5617 5619 5622 5624 5628 5634 5637 5639 5642 5640 5639 5637 5635
5486 5494 5499 5504 5508 5510 5512 5512 5510 5509 5510 5513 5523 5529 5531 5537 5544 5550 5556 5562 5568 5573 5580 5585 5587 5591 5596 5598 5602 5602 5605 5610 5609 5614 5619 5625 5627 5632 5634 5634 5633 5633 5631 5630
5476 5483 5489 5494 5498 5500 5503 5502 5503 5503 5505 5511 5519 5526 5528 5533 5539 5545 5551 5556 5561 5569 5573 5576 5581 5585 5589 5591 5594 5596 5599 5601 5604 5610 5615 5617 5625 5626 5627 5628 5628 5627 5626 5623
5466 5474 5480 5485 5490 5494 5495 5495 5498 5501 5507 5510 5518 5524 5527 5530 5534 5539 5545 5550 5557 5562 5567 5572 5575 5578 5581 5583 5588 5591 5592 5594 5599 5605 5610 5615 5620 5621 5622 5622 5623 5621 5618 5616
5459 5467 5473 5477 5483 5487 5487 5490 5495 5497 5503 5511 5516 5520 5524 5527 5531 5536 5540 5545 5551 5556 5561 5564 5567 5570 5575 5579 5583 5586 5587 5592 5597 5600 5605 5610 5615 5616 5617 5617 5617 5614 5611 5610
5453 5460 5466 5471 5477 5479 5480 5485 5492 5495 5499 5506 5511 5516 5521 5525 5529 5534 5538 5542 5546 5550 5554 5558 5562 5567 5571 5573 5577 5580 5583 5586 5592 5597 5601 5606 5611 5612 5612 5612 5614 5609 5607 5604
5447 5453 5459 5466 5470 5473 5475 5481 5487 5493 5498 5504 5509 5514 5520 5523 5527 5530 5534 5539 5543 5547 5551 5554 5559 5561 5565 5569 5572 5575 5581 5586 5590 5593 5597 5604 5608 5607 5607 5606 5605 5603 5601 5598
5442 5449 5455 5460 5464 5468 5472 5477 5483 5489 5495 5500 5506 5511 5514 5519 5523 5526 5531 5536 5538 5542 5545 5550 5553 5556 5560 5565 5566 5569 5574 5582 5587 5592 5597 5599 5600 5601 5600 5600 5598 5596 5593 5590
5439 5445 5451 5455 5460 5464 5468 5472 5481 5487 5491 5497 5503 5507 5511 5514 5517 5521 5525 5528 5532 5535 5539 5545 5549 5553 5557 5558 5562 5569 5576 5581 5585 5590 5592 5593 5594 5595 5595 5593 5591 5588 5585 5582
5436 5442 5446 5453 5458 5461 5466 5470 5476 5482 5488 5493 5499 5504 5507 5511 5514 5516 5519 5522 5526 5530 5534 5540 5545 5551 5556 5559 5565 5570 5575 5579 5583 5586 5588 5588 5589 5590 5589 5587 5584 5581 5578 5574
5433 5439 5445 5451 5456 5462 5466 5469 5475 5481 5488 5490 5495 5501 5504 5508 5512 5514 5516 5519 5522 5527 5531 5537 5543 5550 5557 5560 5564 5568 5574 5577 5579 5581 5582 5583 5583 5583 5582 5580 5577 5573 5570 5567
5430 5436 5443 5448 5454 5461 5464 5468 5475 5480 5484 5490 5494 5499 5502 5506 5510 5512 5514 5518 5521 5526 5530 5536 5542 5546 5553 5557 5563 5567 5570 5571 5574 5577 5578 5578 5578 5577 5576 5574 5570 5566 5563 5561
5428 5434 5442 5447 5453 5458 5465 5469 5474 5480 5486 5491 5494 5498 5501 5506 5509 5512 5515 5518 5521 5526 5530 5534 5540 5544 5548 5556 5560 5563 5565 5568 5570 5572 5573 5573 5573 5571 5569 5566 5563 5560 5557 5555
5425 5432 5440 5446 5452 5458 5465 5469 5474 5480 5485 5490 5493 5497 5501 5505 5508 5511 5515 5518 5521 5525 5529 5534 5538 5543 5549 5553 5558 5559 5562 5564 5566 5567 5567 5568 5567 5565 5562 5560 5557 5555 5553 5552
5424 5431 5439 5445 5452 5460 5464 5468 5474 5478 5485 5488 5492 5497 5501 5503 5506 5509 5513 5516 5520 5524 5527 5531 5535 5540 5545 5551 5553 5554 5558 5560 5561 5562 5563 5562 5561 5559 5557 5554 5553 5552 5551 5551
5424 5431 5439 5446 5453 5456 5462 5468 5472 5478 5482 5486 5489 5493 5498 5502 5505 5508 5512 5515 5518 5522 5526 5528 5532 5537 5542 5544 5547 5550 5553 5555 5556 5557 5558 5557 5555 5554 5551 5550 5549 5550 5549 5548
5426 5432 5440 5447 5453 5456 5462 5467 5473 5477 5481 5485 5488 5492 5496 5500 5504 5506 5510 5514 5517 5520 5524 5525 5528 5534 5539 5540 5542 5546 5548 5550 5551 5552 5552 5551 5550 5548 5547 5546 5547 5547 5546 5546
5428 5434 5440 5446 5451 5456 5461 5466 5471 5476 5481 5484 5488 5493 5496 5499 5502 5505 5508 5511 5515 5517 5520 5522 5525 5530 5534 5535 5537 5541 5543 5545 5546 5547 5546 5546 5545 5544 5543 5544 5544 5544 5543 5542
5429 5434 5440 5445 5451 5455 5458 5463 5470 5475 5479 5483 5487 5491 5494 5497 5500 5502 5505 5508 5511 5513 5514 5518 5522 5525 5527 5530 5533 5536 5538 5540 5541 5541 5542 5541 5540 5540 5540 5540 5540 5540 5539 5539
5431 5437 5442 5446 5450 5455 5461 5467 5471 5475 5478 5481 5485 5488 5491 5493 5496 5499 5502 5505 5507 5508 5511 5514 5518 5520 5522 5526 5529 5531 5533 5535 5536 5536 5536 5535 5535 5535 5535 5536 5536 5535 5535 5535
5432 5436 5441 5445 5451 5455 5458 5462 5467 5471 5475 5478 5482 5485 5489 5490 5493 5495 5499 5501 5502 5506 5509 5510 5513 5516 5519 5522 5525 5527 5529 5530 5531 5531 5531 5530 5530 5530 5531 5531 5531 5530 5530 5530
5431 5435 5440 5445 5449 5453 5457 5461 5465 5469 5471 5475 5479 5482 5484 5486 5488 5492 5494 5498 5501 5502 5503 5506 5508 5511 5514 5517 5519 5522 5524 5524 5525 5526 5526 5525 5525 5525 5525 5525 5525 5525 5524 5524
5431 5435 5440 5444 5447 5451 5455 5459 5463 5466 5469 5471 5475 5478 5480 5483 5484 5487 5490 5494 5495 5497 5499 5501 5504 5507 5510 5512 5514 5516 5517 5519 5520 5520 5520 5519 5519 5519 5519 5519 5519 5519 5518 5517
Wind_Speed
53 49 46 46 42 45 49 50 50 50 51 57 60 60 50 46 43 42 45 45 44 42 41 43 44 44 40 41 42 39 38 40 38 39 37 38 38 33 30 28 27 28 30 33
51 48 45 45 43 46 47 49 50 56 56 58 57 53 51 44 42 40 42 46 43 38 38 38 36 35 39 41 41 43 44 37 36 41 37 40 31 29 30 29 24 26 30 31
49 48 46 46 45 46 47 48 53 56 59 48 50 50 48 42 37 36 40 43 42 39 36 39 40 28 35 33 36 41 44 41 40 38 32 31 24 25 25 23 26 26 28 31
48 46 46 46 46 46 47 48 52 52 57 44 34 38 44 40 33 34 35 39 41 38 35 35 39 42 37 30 29 30 38 44 42 37 32 29 22 24 24 22 25 26 25 27
47 47 46 46 46 43 44 46 49 52 38 34 19 21 30 40 32 30 30 32 30 31 28 28 31 34 30 25 33 41 35 39 34 31 27 24 21 26 24 21 24 23 23 24
48 46 44 43 38 39 37 44 43 26 23 48 45 8 14 26 28 29 29 28 29 28 25 25 26 35 30 23 25 27 34 35 23 22 27 23 27 24 22 19 22 21 22 22
45 43 40 37 35 33 37 32 25 15 12 16 11 10 17 21 24 27 28 28 27 24 23 26 28 24 27 29 25 27 33 24 20 26 30 30 24 24 22 20 20 21 21 21
42 38 35 33 31 32 28 29 26 24 23 17 26 19 19 23 26 27 26 25 21 22 23 26 27 26 23 23 23 26 26 26 27 30 29 27 21 21 22 22 20 21 23 22
38 34 31 30 29 25 27 33 30 26 20 15 19 22 26 25 25 23 24 21 23 25 27 22 20 19 20 24 25 27 31 32 30 28 29 25 19 22 23 21 20 24 24 26
34 31 30 28 25 23 29 34 34 32 32 26 26 26 27 24 19 25 24 21 20 20 24 22 18 21 22 28 27 31 34 28 28 28 26 23 18 21 21 22 23 25 27 28
32 30 27 25 23 21 30 37 35 30 31 30 27 22 20 21 22 24 26 19 19 22 24 26 24 24 28 30 27 26 23 27 29 28 23 21 17 20 20 22 23 25 26 29
31 27 24 23 20 19 26 36 39 37 32 32 30 26 25 22 20 17 19 23 22 27 29 27 26 31 33 30 30 29 28 31 28 25 22 20 18 19 21 23 23 24 27 29
27 24 23 20 19 19 23 28 34 35 33 30 30 27 24 20 16 20 24 27 27 23 22 25 25 20 14 22 29 24 23 22 21 22 19 21 21 20 21 22 24 27 30 32
25 24 22 22 18 27 26 23 24 25 21 27 27 25 20 20 17 15 16 19 20 20 21 22 21 21 16 16 24 22 21 22 21 20 19 22 21 20 21 23 26 29 32 33
27 26 24 28 34 27 28 27 23 22 27 29 28 25 22 21 17 17 18 17 17 19 25 23 28 25 22 19 26 22 17 18 20 19 19 19 19 21 22 25 29 31 32 29
27 27 35 44 40 35 33 33 27 26 24 24 24 24 25 21 17 16 16 15 17 19 25 29 35 29 26 25 23 19 17 18 20 16 16 18 20 22 23 27 29 30 25 18
29 28 50 50 43 42 38 35 28 23 25 30 28 29 26 20 16 15 15 15 18 21 25 32 31 30 27 25 21 18 18 17 17 17 17 18 20 22 24 27 25 19 14 12
30 32 55 51 43 44 39 35 30 27 25 25 28 30 25 20 21 18 16 16 21 24 26 30 29 26 24 21 18 19 20 17 17 18 18 18 20 22 24 21 15 10 10 9
33 33 42 45 40 39 34 32 31 31 28 25 26 29 23 21 21 20 18 20 19 18 22 28 29 28 23 16 21 24 20 18 19 18 17 19 20 21 19 13 9 7 6 6
36 35 35 34 29 30 35 34 29 27 24 25 26 27 24 21 19 18 18 20 20 18 18 23 25 25 23 22 23 22 20 20 18 16 17 18 19 17 12 9 7 6 6 7
32 30 31 31 33 33 34 34 32 27 27 24 23 25 24 23 23 24 23 22 22 22 20 22 25 25 24 25 25 20 19 18 16 17 16 17 18 12 8 8 7 8 9 9
31 33 30 28 27 27 30 33 31 27 25 23 22 22 22 21 21 21 21 21 22 22 21 21 20 22 24 26 23 20 18 17 17 17 16 16 13 10 8 9 11 10 11 10
31 30 27 26 28 30 30 29 26 25 24 21 19 22 23 21 21 20 20 19 19 21 21 20 19 21 23 23 21 19 19 18 18 16 16 14 12 10 10 12 13 12 12 11
28 27 26 25 25 24 21 22 24 25 22 24 24 22 21 23 21 22 20 19 19 19 18 19 20 22 23 22 20 20 20 19 17 16 16 13 12 12 12 15 16 14 14 14
24 25 26 26 24 22 22 23 29 27 24 23 25 25 25 25 23 23 19 18 19 15 16 20 20 22 22 21 21 22 20 19 17 17 14 13 13 14 15 17 18 16 16 17
20 24 22 18 20 20 21 19 24 25 23 26 26 24 24 22 22 20 22 20 15 16 18 21 22 23 22 22 22 21 21 20 18 18 15 15 15 16 18 19 21 19 18 19
18 20 19 17 19 20 21 20 19 21 21 24 26 26 23 20 19 20 20 19 18 18 19 21 22 22 22 22 22 22 22 21 20 18 17 17 17 18 20 21 22 22 22 21
Wind_Direction
245 246 245 246 249 255 261 265 268 271 266 262 267 265 267 264 252 242 237 240 246 248 247 249 248 246 247 242 233 246 244 247 255 258 256 250 248 254 262 269 270 268 274 278
243 243 243 244 249 256 260 266 269 268 265 260 265 267 264 257 250 244 234 237 241 246 249 247 252 250 245 238 237 237 246 248 258 255 242 251 249 260 265 266 265 271 278 289
240 243 243 245 247 255 262 264 265 268 271 269 267 261 259 255 248 244 235 234 237 241 242 242 241 247 241 237 242 245 253 250 256 243 247 250 253 254 256 255 261 273 282 284
240 241 243 244 248 255 259 262 265 263 269 271 262 264 259 252 241 236 233 231 232 237 242 245 247 248 253 256 226 256 254 244 238 237 241 242 238 250 253 257 266 271 282 291
238 239 241 242 246 250 254 264 264 269 265 255 240 240 243 246 236 226 224 231 232 240 245 247 248 244 252 256 257 263 264 238 231 231 232 242 241 240 247 255 264 280 286 291
235 236 239 242 246 249 256 261 267 241 250 263 238 243 231 216 222 219 222 224 228 233 236 240 237 233 240 255 260 257 239 226 210 223 235 234 238 241 249 254 269 280 287 292
231 232 234 235 239 247 254 264 217 202 203 192 202 218 195 199 208 214 217 222 225 222 228 230 228 226 240 242 247 237 223 213 210 220 229 226 227 242 252 253 263 274 281 291
224 227 226 229 233 241 262 229 206 194 210 215 223 219 202 204 204 213 221 224 223 216 215 225 223 238 243 259 253 251 218 209 216 223 224 230 231 244 254 261 267 275 280 291
220 219 221 226 228 241 246 218 189 175 180 193 221 207 209 208 209 207 202 209 206 208 223 241 234 246 251 249 242 239 231 219 208 211 220 225 235 247 254 262 268 274 283 285
212 213 217 217 224 239 228 212 208 194 213 209 209 203 209 205 198 203 213 209 215 224 240 240 244 259 253 246 241 235 229 206 207 216 221 226 240 250 260 267 270 274 279 283
207 210 210 214 219 230 214 205 198 195 199 204 213 221 215 225 218 220 228 225 225 234 236 239 248 244 244 242 223 211 215 207 208 220 219 236 244 255 262 269 275 280 284 286
206 203 206 213 217 214 197 206 207 204 211 211 230 247 239 222 205 218 224 235 239 241 236 236 230 232 230 233 229 212 205 205 208 229 239 246 250 254 265 275 283 287 289 291
200 198 200 203 206 194 195 197 201 213 218 224 218 223 215 213 225 225 221 224 230 223 218 225 222 219 213 216 214 205 187 200 213 229 242 250 253 258 271 280 286 289 291 291
192 191 195 186 187 172 172 191 197 197 199 195 199 203 212 220 224 216 209 202 203 208 201 198 195 182 193 200 183 178 200 215 224 235 247 251 255 266 274 282 288 291 293 295
189 188 178 174 164 165 178 197 199 186 188 196 201 205 210 215 211 218 217 207 201 193 188 187 188 173 186 206 197 194 209 223 233 237 240 252 264 276 283 288 290 293 296 301
185 179 173 167 162 162 183 192 193 176 178 184 197 198 210 215 207 207 208 206 201 201 195 183 179 178 198 210 193 202 219 230 233 237 243 257 269 278 284 288 293 298 300 301
177 173 171 169 170 170 183 187 197 196 189 186 200 204 215 216 210 206 198 195 195 201 192 187 193 195 200 194 194 212 232 239 244 246 254 264 274 283 288 294 299 300 307 315
179 173 175 177 179 184 185 196 205 205 205 206 204 208 209 217 217 210 205 201 203 203 200 201 206 205 197 195 204 225 231 239 246 253 260 271 279 286 295 300 302 310 309 306
182 177 177 185 189 187 192 198 199 204 208 211 214 210 224 213 207 196 196 201 204 204 209 210 212 211 207 209 217 228 228 235 244 253 262 272 283 295 301 303 305 305 290 280
182 178 171 167 166 195 198 204 211 213 214 209 201 196 190 196 193 189 197 203 204 206 204 207 214 213 211 219 223 227 230 240 246 253 264 278 292 301 307 295 288 264 259 276
188 187 175 170 177 195 200 210 213 214 210 206 198 193 192 194 195 198 204 207 213 213 216 222 223 221 212 222 227 227 233 239 245 254 269 285 295 303 292 280 259 255 270 284
184 189 183 177 185 194 202 206 209 209 202 201 198 198 200 201 202 205 211 216 220 220 219 223 216 216 217 224 224 221 230 237 246 259 274 287 293 293 275 260 250 257 274 279
173 175 178 181 188 196 199 197 197 195 196 197 195 198 200 202 207 211 217 220 223 222 221 222 216 212 217 216 214 218 227 236 248 261 276 286 288 286 270 257 254 262 274 275
177 178 182 187 187 196 200 206 203 197 200 203 206 206 208 212 215 221 223 222 222 222 216 217 214 214 212 207 213 221 228 238 249 262 275 283 286 281 266 260 256 263 271 275
185 190 196 202 206 207 202 201 205 208 212 214 213 216 220 223 222 224 223 223 226 225 221 221 219 216 212 212 218 224 232 239 249 261 269 270 270 271 264 261 258 261 269 273
188 196 200 200 203 198 196 191 194 201 213 213 214 217 222 227 227 227 228 228 227 224 223 222 219 215 216 220 225 229 236 243 253 261 268 269 270 271 266 263 262 262 267 269
183 184 187 190 192 188 191 194 199 203 211 213 217 223 230 231 233 229 225 222 222 223 224 222 218 216 221 227 230 235 242 248 255 264 273 273 270 270 268 263 264 266 267 270